When you browse on this site, cookies collect data to enhance your experience and personalize the content and advertising you see.
Visit our Privacy Policy to learn more. By continuing to use the site, you agree to this use of cookies and data.
  • In Hungary
  • List of Countries
  • For 7 days
  • Water Temperature
  • Satellite Maps
  • Weather Map
  • News
  • Weather Widgets
  • user-avatar
    Login

    Hourly Weather Al-Ladikija

    Today, 12 December, Wednesday

    Time Temperature Precipitation Wind Pressure Humidity
    00:00 +16°C° 1.2 mm 10 mps 758 mmHg 86%
    01:00 +16°C° 1.2 mm 11 mps 757 mmHg 85%
    02:00 +17°C° 0 mm 12 mps 757 mmHg 82%
    03:00 +17°C° 1.1 mm 12 mps 757 mmHg 82%
    04:00 +17°C° 1.1 mm 12 mps 757 mmHg 82%
    05:00 +17°C° 1.1 mm 12 mps 756 mmHg 82%
    06:00 +17°C° 0.8 mm 12 mps 757 mmHg 80%
    07:00 +17°C° 0.8 mm 12 mps 757 mmHg 78%
    08:00 +17°C° 0.8 mm 12 mps 757 mmHg 77%
    09:00 +17°C° 0.5 mm 12 mps 757 mmHg 74%
    10:00 +18°C° 0.5 mm 13 mps 757 mmHg 72%
    11:00 +18°C° 0.5 mm 13 mps 757 mmHg 69%
    12:00 +18°C° 0.5 mm 13 mps 757 mmHg 70%
    13:00 +17°C° 0.5 mm 13 mps 756 mmHg 70%
    14:00 +17°C° 0.5 mm 13 mps 756 mmHg 70%
    15:00 +17°C° 0.1 mm 13 mps 756 mmHg 69%
    16:00 +15°C° 0.1 mm 12 mps 757 mmHg 67%
    17:00 +15°C° 0.1 mm 12 mps 757 mmHg 65%
    18:00 +14°C° 0 mm 12 mps 757 mmHg 65%
    19:00 +14°C° 0 mm 12 mps 758 mmHg 65%
    20:00 +14°C° 0 mm 13 mps 758 mmHg 64%
    21:00 +13°C° 0 mm 12 mps 758 mmHg 65%
    22:00 +13°C° 0 mm 12 mps 759 mmHg 65%
    23:00 +13°C° 0 mm 12 mps 759 mmHg 65%

    Tomorrow, 13 December, Thursday

    Time Temperature Precipitation Wind Pressure Humidity
    00:00 +13°C° 0 mm 11 mps 759 mmHg 65%
    01:00 +13°C° 0 mm 11 mps 760 mmHg 65%
    02:00 +13°C° 0 mm 10 mps 760 mmHg 64%
    03:00 +13°C° 0 mm 10 mps 761 mmHg 65%
    04:00 +13°C° 0 mm 9 mps 761 mmHg 65%
    05:00 +12°C° 0 mm 9 mps 761 mmHg 65%
    06:00 +13°C° 0 mm 8 mps 762 mmHg 65%
    07:00 +13°C° 0 mm 8 mps 762 mmHg 64%
    08:00 +14°C° 0 mm 7 mps 763 mmHg 64%
    09:00 +15°C° 0 mm 7 mps 763 mmHg 61%
    10:00 +15°C° 0 mm 7 mps 763 mmHg 58%
    11:00 +16°C° 0 mm 7 mps 763 mmHg 55%
    12:00 +16°C° 0 mm 6 mps 763 mmHg 55%
    13:00 +16°C° 0 mm 6 mps 763 mmHg 55%
    14:00 +16°C° 0 mm 6 mps 763 mmHg 55%
    15:00 +15°C° 0 mm 5 mps 764 mmHg 58%
    16:00 +14°C° 0 mm 4 mps 764 mmHg 61%
    17:00 +13°C° 0 mm 3 mps 764 mmHg 64%
    18:00 +13°C° 0 mm 3 mps 764 mmHg 65%
    19:00 +14°C° 0 mm 2 mps 765 mmHg 66%
    20:00 +13°C° 0 mm 2 mps 765 mmHg 67%
    21:00 +13°C° 0 mm 2 mps 765 mmHg 67%
    22:00 +13°C° 0 mm 2 mps 766 mmHg 68%
    23:00 +13°C° 0 mm 2 mps 766 mmHg 69%

    Day after tomorrow, 14 December, Friday

    Time Temperature Precipitation Wind Pressure Humidity
    00:00 +13°C° 0 mm 2 mps 766 mmHg 70%
    01:00 +13°C° 0 mm 2 mps 766 mmHg 72%
    02:00 +13°C° 0 mm 1 mps 766 mmHg 73%
    03:00 +13°C° 0 mm 1 mps 766 mmHg 74%
    04:00 +13°C° 0 mm 1 mps 766 mmHg 75%
    05:00 +13°C° 0 mm 1 mps 765 mmHg 76%
    06:00 +13°C° 0 mm 2 mps 766 mmHg 75%
    07:00 +14°C° 0 mm 2 mps 766 mmHg 74%
    08:00 +13°C° 0 mm 3 mps 767 mmHg 73%
    09:00 +14°C° 0 mm 3 mps 766 mmHg 70%
    10:00 +16°C° 0 mm 3 mps 766 mmHg 67%
    11:00 +16°C° 0 mm 3 mps 766 mmHg 64%
    12:00 +17°C° 0 mm 2 mps 766 mmHg 64%
    13:00 +17°C° 0 mm 2 mps 765 mmHg 63%
    14:00 +17°C° 0 mm 2 mps 765 mmHg 62%
    15:00 +17°C° 0 mm 2 mps 765 mmHg 65%
    16:00 +16°C° 0 mm 1 mps 765 mmHg 68%
    17:00 +16°C° 0 mm 1 mps 765 mmHg 70%
    18:00 +16°C° 0 mm 1 mps 766 mmHg 72%
    19:00 +15°C° 0 mm 1 mps 766 mmHg 73%
    20:00 +15°C° 0 mm 1 mps 766 mmHg 75%
    21:00 +15°C° 0 mm 1 mps 766 mmHg 75%
    22:00 +14°C° 0 mm 2 mps 766 mmHg 76%
    23:00 +14°C° 0 mm 2 mps 766 mmHg 77%

    15 December, Saturday

    Time Temperature Precipitation Wind Pressure Humidity
    00:00 +14°C° 0 mm 2 mps 766 mmHg 77%
    01:00 +14°C° 0 mm 2 mps 766 mmHg 77%
    02:00 +14°C° 0 mm 2 mps 766 mmHg 76%
    03:00 +13°C° 0 mm 3 mps 766 mmHg 76%
    04:00 +12°C° 0 mm 3 mps 765 mmHg 75%
    05:00 +12°C° 0 mm 3 mps 765 mmHg 74%
    06:00 +13°C° 0 mm 4 mps 765 mmHg 73%
    07:00 +13°C° 0 mm 4 mps 766 mmHg 71%
    08:00 +13°C° 0 mm 5 mps 766 mmHg 70%
    09:00 +15°C° 0 mm 5 mps 766 mmHg 65%
    10:00 +16°C° 0 mm 5 mps 765 mmHg 61%
    11:00 +17°C° 0 mm 5 mps 765 mmHg 57%
    12:00 +19°C° 0 mm 5 mps 765 mmHg 56%
    13:00 +19°C° 0 mm 5 mps 764 mmHg 54%
    14:00 +19°C° 0 mm 6 mps 764 mmHg 53%
    15:00 +17°C° 0 mm 6 mps 764 mmHg 56%
    16:00 +17°C° 0 mm 6 mps 764 mmHg 59%
    17:00 +16°C° 0 mm 6 mps 763 mmHg 62%
    18:00 +15°C° 0 mm 7 mps 764 mmHg 63%
    19:00 +15°C° 0 mm 7 mps 764 mmHg 64%
    20:00 +14°C° 0 mm 7 mps 764 mmHg 65%
    21:00 +14°C° 0 mm 7 mps 764 mmHg 66%
    22:00 +14°C° 0 mm 7 mps 764 mmHg 66%
    23:00 +14°C° 0 mm 7 mps 763 mmHg 67%

    16 December, Sunday

    Time Temperature Precipitation Wind Pressure Humidity
    00:00 +12°C° 0 mm 7 mps 763 mmHg 68%
    01:00 +12°C° 0 mm 7 mps 763 mmHg 68%
    02:00 +12°C° 0 mm 7 mps 763 mmHg 69%
    03:00 +12°C° 0 mm 7 mps 762 mmHg 70%
    04:00 +11°C° 0 mm 7 mps 762 mmHg 71%
    05:00 +11°C° 0 mm 7 mps 762 mmHg 72%
    06:00 +11°C° 0 mm 8 mps 762 mmHg 72%
    07:00 +12°C° 0 mm 8 mps 762 mmHg 72%
    08:00 +12°C° 0 mm 8 mps 762 mmHg 71%
    09:00 +13°C° 0 mm 8 mps 762 mmHg 68%
    10:00 +16°C° 0 mm 8 mps 761 mmHg 64%
    11:00 +17°C° 0 mm 8 mps 761 mmHg 61%
    12:00 +17°C° 0 mm 8 mps 761 mmHg 59%
    13:00 +18°C° 0 mm 8 mps 760 mmHg 58%
    14:00 +18°C° 0 mm 8 mps 760 mmHg 57%
    15:00 +17°C° 0 mm 8 mps 760 mmHg 59%
    16:00 +17°C° 0 mm 8 mps 760 mmHg 61%
    17:00 +16°C° 0 mm 9 mps 760 mmHg 63%
    18:00 +16°C° 0 mm 9 mps 760 mmHg 65%
    19:00 +15°C° 0 mm 8 mps 761 mmHg 66%
    20:00 +15°C° 0 mm 8 mps 761 mmHg 67%
    21:00 +15°C° 0 mm 8 mps 761 mmHg 69%
    22:00 +14°C° 0 mm 7 mps 761 mmHg 71%
    23:00 +14°C° 0 mm 6 mps 761 mmHg 74%

    17 December, Monday

    Time Temperature Precipitation Wind Pressure Humidity
    00:00 +13°C° 0.1 mm 6 mps 761 mmHg 76%
    01:00 +13°C° 0.1 mm 6 mps 761 mmHg 79%
    02:00 +13°C° 0.1 mm 6 mps 760 mmHg 81%
    03:00 +13°C° 0.1 mm 6 mps 760 mmHg 82%
    04:00 +11°C° 0.1 mm 6 mps 760 mmHg 82%
    05:00 +11°C° 0.1 mm 6 mps 760 mmHg 83%
    06:00 +13°C° 0 mm 6 mps 761 mmHg 82%
    07:00 +13°C° 0 mm 6 mps 761 mmHg 82%
    08:00 +13°C° 0 mm 6 mps 761 mmHg 81%
    09:00 +14°C° 0 mm 6 mps 761 mmHg 77%
    10:00 +15°C° 0 mm 5 mps 761 mmHg 73%
    11:00 +16°C° 0 mm 5 mps 761 mmHg 70%
    12:00 +16°C° 0 mm 5 mps 761 mmHg 68%
    13:00 +17°C° 0 mm 4 mps 760 mmHg 67%
    14:00 +17°C° 0 mm 4 mps 760 mmHg 66%
    15:00 +15°C° 0 mm 4 mps 760 mmHg 71%
    16:00 +15°C° 0 mm 4 mps 761 mmHg 75%
    17:00 +14°C° 0 mm 4 mps 761 mmHg 79%
    18:00 +13°C° 0 mm 5 mps 761 mmHg 80%
    19:00 +13°C° 0 mm 5 mps 761 mmHg 82%
    20:00 +13°C° 0 mm 5 mps 762 mmHg 83%
    21:00 +12°C° 0 mm 5 mps 762 mmHg 84%
    22:00 +12°C° 0 mm 5 mps 762 mmHg 84%
    23:00 +12°C° 0 mm 5 mps 762 mmHg 85%
    Show more